• In Schweiz
  • Länderverzeichnis
  • Für 7 Tage
  • Wassertemperatur
  • Satellitenkarten
  • Wetterkarte
  • Widgets
  • user-avatar
    Anmelden

    Stündliche Wetter Kaen-Saz

    Heute, 16 Juli, Montag

    Zeit Temperatur Niederschläge Wind Luftdruck Luftfeuchtigkeit
    00:00 +20°C° 0 mm 3 m/S 745 mmHg 92%
    01:00 +20°C° 0 mm 3 m/S 745 mmHg 92%
    02:00 +19°C° 0 mm 3 m/S 745 mmHg 93%
    03:00 +19°C° 0 mm 2 m/S 745 mmHg 93%
    04:00 +19°C° 0 mm 2 m/S 745 mmHg 94%
    05:00 +20°C° 0,9 mm 3 m/S 745 mmHg 93%
    06:00 +21°C° 0,9 mm 3 m/S 745 mmHg 91%
    07:00 +22°C° 0,9 mm 3 m/S 745 mmHg 90%
    08:00 +24°C° 0,3 mm 3 m/S 745 mmHg 87%
    09:00 +25°C° 0,3 mm 4 m/S 745 mmHg 84%
    10:00 +26°C° 0 mm 4 m/S 746 mmHg 80%
    11:00 +26°C° 0,7 mm 4 m/S 746 mmHg 76%
    12:00 +27°C° 0,7 mm 5 m/S 746 mmHg 72%
    13:00 +28°C° 0,7 mm 5 m/S 746 mmHg 68%
    14:00 +28°C° 0,1 mm 5 m/S 745 mmHg 71%
    15:00 +28°C° 0,1 mm 5 m/S 745 mmHg 70%
    16:00 +28°C° 0,1 mm 5 m/S 745 mmHg 69%
    17:00 +28°C° 0,2 mm 4 m/S 745 mmHg 72%
    18:00 +27°C° 0,2 mm 3 m/S 745 mmHg 76%
    19:00 +27°C° 0,2 mm 3 m/S 745 mmHg 79%
    20:00 +25°C° 0,1 mm 3 m/S 745 mmHg 82%
    21:00 +24°C° 0,1 mm 2 m/S 745 mmHg 84%
    22:00 +21°C° 0,1 mm 2 m/S 745 mmHg 87%
    23:00 +21°C° 0 mm 2 m/S 745 mmHg 87%

    Morgen, 17 Juli, Dienstag

    Zeit Temperatur Niederschläge Wind Luftdruck Luftfeuchtigkeit
    00:00 +20°C° 0 mm 2 m/S 745 mmHg 88%
    01:00 +20°C° 0 mm 3 m/S 745 mmHg 89%
    02:00 +19°C° 0 mm 3 m/S 745 mmHg 90%
    03:00 +19°C° 0 mm 3 m/S 745 mmHg 91%
    04:00 +18°C° 0 mm 2 m/S 745 mmHg 92%
    05:00 +19°C° 0 mm 3 m/S 745 mmHg 89%
    06:00 +20°C° 0 mm 3 m/S 745 mmHg 86%
    07:00 +21°C° 0 mm 3 m/S 745 mmHg 83%
    08:00 +22°C° 0 mm 4 m/S 745 mmHg 81%
    09:00 +22°C° 0 mm 4 m/S 745 mmHg 78%
    10:00 +23°C° 0 mm 4 m/S 745 mmHg 75%
    11:00 +25°C° 0 mm 5 m/S 745 mmHg 75%
    12:00 +25°C° 0 mm 5 m/S 745 mmHg 74%
    13:00 +25°C° 0 mm 5 m/S 745 mmHg 73%
    14:00 +25°C° 0 mm 5 m/S 745 mmHg 75%
    15:00 +23°C° 0 mm 5 m/S 744 mmHg 77%
    16:00 +23°C° 0 mm 4 m/S 744 mmHg 78%
    17:00 +23°C° 0,2 mm 4 m/S 744 mmHg 81%
    18:00 +22°C° 0,2 mm 4 m/S 744 mmHg 83%
    19:00 +22°C° 0,2 mm 3 m/S 744 mmHg 86%
    20:00 +22°C° 1,1 mm 4 m/S 744 mmHg 88%
    21:00 +21°C° 1,1 mm 4 m/S 744 mmHg 90%
    22:00 +21°C° 1,1 mm 4 m/S 744 mmHg 92%
    23:00 +20°C° 2,6 mm 4 m/S 743 mmHg 93%

    übermorgen, 18 Juli, Mittwoch

    Zeit Temperatur Niederschläge Wind Luftdruck Luftfeuchtigkeit
    00:00 +20°C° 2,6 mm 4 m/S 743 mmHg 94%
    01:00 +20°C° 2,6 mm 4 m/S 743 mmHg 94%
    02:00 +20°C° 0,4 mm 5 m/S 743 mmHg 94%
    03:00 +20°C° 0,4 mm 5 m/S 743 mmHg 94%
    04:00 +20°C° 0,4 mm 5 m/S 743 mmHg 94%
    05:00 +20°C° 0,5 mm 5 m/S 743 mmHg 94%
    06:00 +20°C° 0,5 mm 5 m/S 742 mmHg 94%
    07:00 +20°C° 0,5 mm 5 m/S 742 mmHg 94%
    08:00 +20°C° 2,9 mm 4 m/S 742 mmHg 94%
    09:00 +20°C° 2,9 mm 4 m/S 743 mmHg 95%
    10:00 +20°C° 2,9 mm 3 m/S 743 mmHg 96%
    11:00 +21°C° 0,4 mm 3 m/S 743 mmHg 93%
    12:00 +22°C° 0,4 mm 3 m/S 743 mmHg 91%
    13:00 +24°C° 0,4 mm 3 m/S 743 mmHg 89%
    14:00 +25°C° 0,1 mm 3 m/S 743 mmHg 86%
    15:00 +25°C° 0,1 mm 2 m/S 743 mmHg 83%
    16:00 +26°C° 0,1 mm 2 m/S 743 mmHg 80%
    17:00 +26°C° 0,5 mm 2 m/S 743 mmHg 82%
    18:00 +26°C° 0,5 mm 1 m/S 743 mmHg 84%
    19:00 +26°C° 0,5 mm 1 m/S 743 mmHg 85%
    20:00 +25°C° 0,3 mm 1 m/S 743 mmHg 87%
    21:00 +23°C° 0,3 mm 1 m/S 743 mmHg 88%
    22:00 +22°C° 0,3 mm 1 m/S 743 mmHg 89%
    23:00 +22°C° 0 mm 1 m/S 744 mmHg 89%

    19 Juli, Donnerstag

    Zeit Temperatur Niederschläge Wind Luftdruck Luftfeuchtigkeit
    00:00 +21°C° 0 mm 1 m/S 744 mmHg 90%
    01:00 +21°C° 0 mm 1 m/S 744 mmHg 90%
    02:00 +20°C° 0 mm 1 m/S 744 mmHg 90%
    03:00 +20°C° 0 mm 1 m/S 744 mmHg 90%
    04:00 +20°C° 0 mm 1 m/S 744 mmHg 91%
    05:00 +21°C° 0 mm 1 m/S 744 mmHg 90%
    06:00 +22°C° 0 mm 1 m/S 744 mmHg 88%
    07:00 +23°C° 0 mm 1 m/S 744 mmHg 87%
    08:00 +24°C° 0,3 mm 1 m/S 744 mmHg 84%
    09:00 +25°C° 0,3 mm 2 m/S 744 mmHg 80%
    10:00 +27°C° 0,3 mm 2 m/S 744 mmHg 76%
    11:00 +27°C° 0,8 mm 2 m/S 744 mmHg 73%
    12:00 +28°C° 0,8 mm 2 m/S 744 mmHg 70%
    13:00 +29°C° 0,8 mm 2 m/S 745 mmHg 66%
    14:00 +29°C° 0,4 mm 2 m/S 745 mmHg 65%
    15:00 +29°C° 0,4 mm 1 m/S 745 mmHg 63%
    16:00 +29°C° 0,4 mm 1 m/S 745 mmHg 61%
    17:00 +29°C° 0 mm 1 m/S 745 mmHg 66%
    18:00 +28°C° 0 mm 1 m/S 745 mmHg 70%
    19:00 +27°C° 0 mm 1 m/S 745 mmHg 75%
    20:00 +26°C° 0,4 mm 1 m/S 745 mmHg 79%
    21:00 +24°C° 0,4 mm 2 m/S 745 mmHg 84%
    22:00 +23°C° 0,4 mm 2 m/S 745 mmHg 88%
    23:00 +21°C° 0,3 mm 2 m/S 745 mmHg 90%

    20 Juli, Freitag

    Zeit Temperatur Niederschläge Wind Luftdruck Luftfeuchtigkeit
    00:00 +21°C° 0,3 mm 2 m/S 745 mmHg 92%
    01:00 +20°C° 0,3 mm 2 m/S 745 mmHg 93%
    02:00 +20°C° 0,1 mm 2 m/S 746 mmHg 94%
    03:00 +19°C° 0,1 mm 2 m/S 746 mmHg 95%
    04:00 +19°C° 0,1 mm 2 m/S 746 mmHg 96%
    05:00 +19°C° 0 mm 2 m/S 746 mmHg 95%
    06:00 +19°C° 0 mm 3 m/S 746 mmHg 94%
    07:00 +20°C° 0 mm 3 m/S 746 mmHg 93%
    08:00 +21°C° 0 mm 3 m/S 746 mmHg 89%
    09:00 +22°C° 0 mm 3 m/S 746 mmHg 85%
    10:00 +25°C° 0 mm 3 m/S 746 mmHg 81%
    11:00 +25°C° 0 mm 3 m/S 746 mmHg 79%
    12:00 +26°C° 0 mm 3 m/S 746 mmHg 76%
    13:00 +27°C° 0 mm 3 m/S 746 mmHg 74%
    14:00 +27°C° 0,1 mm 3 m/S 746 mmHg 73%
    15:00 +27°C° 0,1 mm 3 m/S 746 mmHg 72%
    16:00 +28°C° 0,1 mm 3 m/S 746 mmHg 71%
    17:00 +27°C° 0 mm 3 m/S 746 mmHg 75%
    18:00 +27°C° 0 mm 3 m/S 746 mmHg 78%
    19:00 +26°C° 0 mm 3 m/S 746 mmHg 82%
    20:00 +25°C° 0 mm 3 m/S 746 mmHg 86%
    21:00 +22°C° 0 mm 3 m/S 746 mmHg 89%
    22:00 +21°C° 0 mm 3 m/S 746 mmHg 93%
    23:00 +20°C° 0 mm 3 m/S 746 mmHg 93%

    21 Juli, Samstag

    Zeit Temperatur Niederschläge Wind Luftdruck Luftfeuchtigkeit
    00:00 +20°C° 0 mm 3 m/S 746 mmHg 94%
    01:00 +19°C° 0 mm 4 m/S 746 mmHg 94%
    02:00 +19°C° 0 mm 3 m/S 746 mmHg 94%
    03:00 +18°C° 0 mm 3 m/S 746 mmHg 94%
    04:00 +18°C° 0 mm 3 m/S 747 mmHg 95%
    05:00 +19°C° 0 mm 4 m/S 747 mmHg 93%
    06:00 +19°C° 0 mm 4 m/S 747 mmHg 91%
    07:00 +20°C° 0 mm 5 m/S 747 mmHg 89%
    08:00 +21°C° 0 mm 5 m/S 747 mmHg 85%
    09:00 +23°C° 0 mm 6 m/S 747 mmHg 81%
    10:00 +24°C° 0 mm 6 m/S 747 mmHg 78%
    11:00 +24°C° 0,1 mm 6 m/S 747 mmHg 75%
    12:00 +26°C° 0,1 mm 6 m/S 748 mmHg 72%
    13:00 +27°C° 0,1 mm 6 m/S 748 mmHg 69%
    14:00 +27°C° 0,3 mm 6 m/S 748 mmHg 69%
    15:00 +27°C° 0,3 mm 6 m/S 748 mmHg 69%
    16:00 +27°C° 0,3 mm 6 m/S 748 mmHg 69%
    17:00 +26°C° 0 mm 5 m/S 748 mmHg 71%
    18:00 +25°C° 0 mm 5 m/S 748 mmHg 73%
    19:00 +23°C° 0 mm 4 m/S 748 mmHg 76%
    20:00 +22°C° 0 mm 5 m/S 748 mmHg 75%
    21:00 +21°C° 0 mm 5 m/S 748 mmHg 74%
    22:00 +20°C° 0 mm 5 m/S 748 mmHg 73%
    23:00 +20°C° 0 mm 5 m/S 749 mmHg 73%
    Mehr zeigen